• In Uzbekistan
  • List of Countries
  • For 7 days
  • Water Temperature
  • Satellite Maps
  • Weather Map
  • Weather Widgets
  • user-avatar
    Login

    Hourly Weather Ashtarak

    Today, 3 December, Saturday

    Time Temperature Precipitation Wind Pressure Humidity
    00:00 +2°C° 0.4 mm 3 mps 649 mmHg 84%
    01:00 +1°C° 0.1 mm 3 mps 649 mmHg 83%
    02:00 +1°C° 0.1 mm 3 mps 650 mmHg 82%
    03:00 0°C° 0 mm 3 mps 650 mmHg 77%
    04:00 0°C° 0 mm 3 mps 650 mmHg 76%
    05:00 0°C° 0 mm 3 mps 651 mmHg 75%
    06:00 0°C° 0 mm 3 mps 652 mmHg 74%
    07:00 0°C° 0 mm 3 mps 653 mmHg 70%
    08:00 +1°C° 0 mm 3 mps 653 mmHg 67%
    09:00 0°C° 0 mm 4 mps 654 mmHg 63%
    10:00 +1°C° 0 mm 5 mps 654 mmHg 61%
    11:00 +2°C° 0 mm 5 mps 654 mmHg 58%
    12:00 +3°C° 0 mm 6 mps 655 mmHg 55%
    13:00 +2°C° 0.1 mm 6 mps 655 mmHg 56%
    14:00 +2°C° 0.1 mm 6 mps 655 mmHg 57%
    15:00 +2°C° 0 mm 6 mps 655 mmHg 57%
    16:00 +2°C° 0.1 mm 6 mps 655 mmHg 61%
    17:00 +1°C° 0.1 mm 5 mps 656 mmHg 64%
    18:00 0°C° 0.1 mm 5 mps 657 mmHg 68%
    19:00 0°C° 0.1 mm 4 mps 657 mmHg 69%
    20:00 -1°C° 0.1 mm 4 mps 658 mmHg 71%
    21:00 -1°C° 0.1 mm 4 mps 658 mmHg 72%
    22:00 0°C° 0 mm 3 mps 659 mmHg 73%
    23:00 0°C° 0 mm 3 mps 659 mmHg 74%

    Tomorrow, 4 December, Sunday

    Time Temperature Precipitation Wind Pressure Humidity
    00:00 -1°C° 0 mm 3 mps 660 mmHg 75%
    01:00 -1°C° 0 mm 3 mps 660 mmHg 76%
    02:00 -1°C° 0 mm 3 mps 660 mmHg 76%
    03:00 -1°C° 0 mm 3 mps 661 mmHg 77%
    04:00 -1°C° 0.1 mm 2 mps 661 mmHg 77%
    05:00 -1°C° 0.1 mm 2 mps 661 mmHg 78%
    06:00 -1°C° 0.1 mm 2 mps 661 mmHg 78%
    07:00 +1°C° 0 mm 2 mps 661 mmHg 76%
    08:00 0°C° 0 mm 3 mps 661 mmHg 73%
    09:00 +1°C° 0 mm 3 mps 662 mmHg 70%
    10:00 +2°C° 0 mm 3 mps 661 mmHg 67%
    11:00 +3°C° 0 mm 3 mps 661 mmHg 64%
    12:00 +4°C° 0 mm 4 mps 661 mmHg 61%
    13:00 +4°C° 0.1 mm 3 mps 661 mmHg 62%
    14:00 +4°C° 0.1 mm 3 mps 660 mmHg 63%
    15:00 +4°C° 0.1 mm 3 mps 660 mmHg 64%
    16:00 +3°C° 0.1 mm 3 mps 660 mmHg 68%
    17:00 +3°C° 0.1 mm 2 mps 660 mmHg 72%
    18:00 +2°C° 0.1 mm 2 mps 660 mmHg 76%
    19:00 +2°C° 0.1 mm 2 mps 660 mmHg 76%
    20:00 +1°C° 0.1 mm 2 mps 660 mmHg 77%
    21:00 +1°C° 0.1 mm 2 mps 660 mmHg 77%
    22:00 +2°C° 0.1 mm 1 mps 660 mmHg 78%
    23:00 +2°C° 0.1 mm 1 mps 660 mmHg 78%

    Day after tomorrow, 5 December, Monday

    Time Temperature Precipitation Wind Pressure Humidity
    00:00 +2°C° 0.1 mm 1 mps 660 mmHg 78%
    01:00 +1°C° 0.1 mm 1 mps 660 mmHg 79%
    02:00 +1°C° 0.1 mm 1 mps 659 mmHg 80%
    03:00 +1°C° 0.1 mm 1 mps 659 mmHg 80%
    04:00 +1°C° 0.1 mm 1 mps 659 mmHg 80%
    05:00 +1°C° 0.1 mm 1 mps 659 mmHg 80%
    06:00 +1°C° 0.1 mm 1 mps 659 mmHg 80%
    07:00 +2°C° 0.1 mm 1 mps 659 mmHg 77%
    08:00 +2°C° 0.1 mm 1 mps 659 mmHg 74%
    09:00 +3°C° 0.1 mm 1 mps 660 mmHg 70%
    10:00 +4°C° 0.1 mm 1 mps 659 mmHg 67%
    11:00 +4°C° 0.1 mm 2 mps 659 mmHg 64%
    12:00 +5°C° 0.1 mm 2 mps 659 mmHg 61%
    13:00 +5°C° 0.2 mm 2 mps 658 mmHg 62%
    14:00 +4°C° 0.2 mm 2 mps 658 mmHg 64%
    15:00 +4°C° 0.2 mm 2 mps 658 mmHg 65%
    16:00 +3°C° 0.3 mm 2 mps 658 mmHg 69%
    17:00 +3°C° 0.3 mm 1 mps 658 mmHg 73%
    18:00 +3°C° 0.3 mm 1 mps 658 mmHg 77%
    19:00 +2°C° 0.4 mm 1 mps 658 mmHg 78%
    20:00 +2°C° 0.4 mm 1 mps 658 mmHg 79%
    21:00 +2°C° 0.4 mm 1 mps 658 mmHg 80%
    22:00 +1°C° 0.2 mm 1 mps 658 mmHg 80%
    23:00 +1°C° 0.2 mm 1 mps 658 mmHg 81%

    6 December, Tuesday

    Time Temperature Precipitation Wind Pressure Humidity
    00:00 -2°C° 0.2 mm 2 mps 659 mmHg 82%
    01:00 -2°C° 0.1 mm 2 mps 659 mmHg 81%
    02:00 -3°C° 0.1 mm 2 mps 659 mmHg 79%
    03:00 -5°C° 0.1 mm 3 mps 659 mmHg 78%
    04:00 -5°C° 0 mm 3 mps 660 mmHg 77%
    05:00 -5°C° 0 mm 2 mps 660 mmHg 76%
    06:00 -6°C° 0 mm 2 mps 660 mmHg 74%
    07:00 -5°C° 0 mm 2 mps 661 mmHg 72%
    08:00 -5°C° 0 mm 2 mps 662 mmHg 69%
    09:00 -5°C° 0 mm 2 mps 662 mmHg 67%
    10:00 -4°C° 0 mm 2 mps 662 mmHg 63%
    11:00 -3°C° 0 mm 2 mps 662 mmHg 58%
    12:00 -2°C° 0 mm 2 mps 662 mmHg 54%
    13:00 0°C° 0 mm 1 mps 662 mmHg 55%
    14:00 0°C° 0 mm 1 mps 661 mmHg 56%
    15:00 0°C° 0 mm 1 mps 661 mmHg 57%
    16:00 -2°C° 0 mm 1 mps 661 mmHg 61%
    17:00 -6°C° 0 mm 1 mps 660 mmHg 66%
    18:00 -8°C° 0 mm 1 mps 660 mmHg 70%
    19:00 -8°C° 0 mm 1 mps 660 mmHg 70%
    20:00 -8°C° 0 mm 1 mps 660 mmHg 70%
    21:00 -9°C° 0 mm 1 mps 660 mmHg 70%
    22:00 -9°C° 0 mm 1 mps 660 mmHg 70%
    23:00 -9°C° 0 mm 1 mps 660 mmHg 70%

    7 December, Wednesday

    Time Temperature Precipitation Wind Pressure Humidity
    00:00 -9°C° 0 mm 1 mps 659 mmHg 70%
    01:00 -9°C° 0 mm 1 mps 659 mmHg 70%
    02:00 -9°C° 0 mm 1 mps 659 mmHg 70%
    03:00 -9°C° 0 mm 1 mps 659 mmHg 70%
    04:00 -9°C° 0 mm 1 mps 658 mmHg 70%
    05:00 -9°C° 0 mm 1 mps 658 mmHg 70%
    06:00 -9°C° 0 mm 1 mps 658 mmHg 69%
    07:00 -7°C° 0 mm 1 mps 659 mmHg 65%
    08:00 -4°C° 0 mm 1 mps 659 mmHg 60%
    09:00 -2°C° 0 mm 1 mps 660 mmHg 55%
    10:00 0°C° 0 mm 1 mps 660 mmHg 52%
    11:00 -1°C° 0 mm 2 mps 660 mmHg 50%
    12:00 +2°C° 0 mm 2 mps 659 mmHg 47%
    13:00 +1°C° 0 mm 2 mps 659 mmHg 49%
    14:00 +1°C° 0 mm 2 mps 659 mmHg 50%
    15:00 +1°C° 0 mm 2 mps 658 mmHg 52%
    16:00 -1°C° 0 mm 1 mps 658 mmHg 56%
    17:00 -3°C° 0 mm 1 mps 657 mmHg 59%
    18:00 -7°C° 0 mm 1 mps 657 mmHg 63%
    19:00 -7°C° 0 mm 1 mps 657 mmHg 63%
    20:00 -7°C° 0 mm 1 mps 657 mmHg 64%
    21:00 -7°C° 0 mm 1 mps 657 mmHg 64%
    22:00 -7°C° 0 mm 1 mps 657 mmHg 64%
    23:00 -8°C° 0 mm 1 mps 657 mmHg 65%

    8 December, Thursday

    Time Temperature Precipitation Wind Pressure Humidity
    00:00 -8°C° 0 mm 1 mps 657 mmHg 66%
    01:00 -7°C° 0 mm 1 mps 657 mmHg 65%
    02:00 -7°C° 0 mm 1 mps 657 mmHg 64%
    03:00 -7°C° 0 mm 1 mps 657 mmHg 63%
    04:00 -6°C° 0 mm 1 mps 658 mmHg 64%
    05:00 -6°C° 0 mm 1 mps 658 mmHg 65%
    06:00 -6°C° 0 mm 1 mps 659 mmHg 66%
    07:00 -3°C° 0 mm 1 mps 659 mmHg 64%
    08:00 -2°C° 0 mm 1 mps 660 mmHg 62%
    09:00 -1°C° 0 mm 1 mps 661 mmHg 60%
    10:00 -2°C° 0 mm 2 mps 661 mmHg 58%
    11:00 -2°C° 0 mm 2 mps 661 mmHg 56%
    12:00 -1°C° 0 mm 3 mps 661 mmHg 53%
    13:00 -1°C° 0 mm 3 mps 661 mmHg 54%
    14:00 -2°C° 0 mm 3 mps 661 mmHg 54%
    15:00 -2°C° 0 mm 2 mps 661 mmHg 55%
    16:00 -4°C° 0 mm 2 mps 661 mmHg 60%
    17:00 -5°C° 0 mm 2 mps 661 mmHg 64%
    18:00 -7°C° 0 mm 2 mps 661 mmHg 69%
    19:00 -7°C° 0 mm 2 mps 661 mmHg 70%
    20:00 -7°C° 0 mm 1 mps 661 mmHg 70%
    21:00 -7°C° 0 mm 1 mps 661 mmHg 71%
    22:00 -8°C° 0 mm 1 mps 661 mmHg 71%
    23:00 -8°C° 0 mm 1 mps 661 mmHg 72%
    Show more